Regional Weather Roundup
Issued by NWS Upton, NY

Current Version | Previous Version | Text Only | Print | Product List | Glossary On
Versions: 1 2 3 4 5 6 7 8 9 10 11 12 13 14 15 16 17 18 19 20 21 22 23 24 25 26 27
000
ASUS41 KOKX 270004
RWROKX

REGIONAL WEATHER ROUNDUP
NATIONAL WEATHER SERVICE NEW YORK NY
800 PM EDT SUN JUN 26 2016

NOTE: "FAIR" INDICATES FEW OR NO CLOUDS BELOW 12,000 FEET WITH NO
SIGNIFICANT WEATHER AND/OR OBSTRUCTIONS TO VISIBILITY.

NYZ071-072-176-178-NJZ106-104-270100-
NEW YORK CITY METRO AREA


CITY           SKY/WX    TMP DP  RH WIND       PRES   REMARKS
CENTRAL PARK   CLEAR     75  52  44 VRB5      30.16F
LAGUARDIA APRT MOCLDY    75  51  43 S16       30.13F
KENNEDY INTL   MOCLDY    74  56  53 S14       30.16F
NEWARK/LIBERTY MOCLDY    80  52  37 S10       30.13S
BRNX BOT. GARD   N/A     73  54  49 S10       30.15R
TETERBORO      PTCLDY    78  49  35 S10       30.12S
$$

NYZ177-179-078>081-270100-
LONG ISLAND NEW YORK

CITY           SKY/WX    TMP DP  RH WIND       PRES   REMARKS
FARMINGDALE    CLEAR     71  56  58 S10       30.15F
ISLIP          MOCLDY    70  56  61 SW7       30.15F
SHIRLEY        CLEAR     71  56  58 S7        30.16F
RIVERHEAD      NOT AVBL
WESTHAMPTON    CLEAR     68  56  65 S6        30.18S
SOUTHAMPTON      N/A     68  59  73 SW6       30.13S
BRIDGEHAMPTON  NOT AVBL
EAST HAMPTON   FAIR      67  56  68 S3        30.16F
MONTAUK POINT    N/A     67  59  75 VRB3      30.18F
$$

NYZ052-065-067-270100-
HUDSON VALLEY

CITY           SKY/WX    TMP DP  RH WIND       PRES   REMARKS
WHITE PLAINS   PTCLDY    73  53  49 S8        30.14F
NEWBURGH       NOT AVBL
MONTGOMERY     CLEAR     81  61  50 S10       30.09F
POUGHKEEPSIE   CLEAR     83  58  42 S6        30.08F
ALBANY         MOCLDY    85  57  38 S8        30.05F
$$

NJZ001-105-106-008-010-013-015-019>022-104-270100-
NEW JERSEY

CITY           SKY/WX    TMP DP  RH WIND       PRES   REMARKS
NEWARK/LIBERTY MOCLDY    80  52  37 S10       30.13S
TETERBORO      PTCLDY    78  49  35 S10       30.12S
CALDWELL       PTCLDY    81  55  40 S9        30.12S
MORRISTOWN     NOT AVBL
SOMERVILLE     CLEAR     81  54  39 S10G20    30.10S
SUSSEX         CLEAR     81  56  42 S3        30.11F
ANDOVER          N/A     80  58  46 VRB3      30.12F
TRENTON        PTCLDY    79  52  38 S12       30.12S
MILLVILLE      CLEAR     72  56  57 S3        30.16F
ATLANTIC CITY  CLEAR     72  55  55 S7        30.17S
WRIGHTSTOWN    CLEAR     76  49  38 VRB7      30.12F
TOMS RIVER     NOT AVBL
BELMAR         CLEAR     74  53  48 S5        30.16F
$$

PAZ047>061-062-071-270100-
EASTERN PENNSYLVANIA

CITY           SKY/WX    TMP DP  RH WIND       PRES   REMARKS
PHILADELPHIA   MOCLDY    79  57  46 S10G21    30.15S
ALLENTOWN      CLEAR     83  56  39 S10       30.11S
SCRANTON       CLEAR     79  56  45 S6        30.11F
$$

CTZ002-004>006-009-010-012-RIZ004-006-007-MAZ004-011-015-270100-
SOUTHERN NEW ENGLAND
 IN CT

CITY           SKY/WX    TMP DP  RH WIND       PRES   REMARKS
BRADLEY INTL   MOCLDY    77  59  53 S9        30.11S
HARTFORD       CLEAR     77  58  51 S8        30.12F
DANBURY        CLEAR     74  57  55 S7        30.14F
WTRBRY/OXFORD  PTCLDY    73  55  53 S12       30.17F
BRIDGEPORT     CLEAR     75  56  51 S9        30.14F
MERIDEN        CLEAR     75  56  51 S8        30.14S
NEW HAVEN      PTCLDY    72  58  61 SE7       30.15F
CHESTER        FAIR      70  54  56 S5        30.16F
GROTON         CLEAR     66  62  87 S5        30.16F
WILLIMANTIC    CLEAR     75  56  51 S9        30.15S

 IN RI

CITY           SKY/WX    TMP DP  RH WIND       PRES   REMARKS
PROVIDENCE     PTCLDY    72  48  42 S8        30.15F
BLOCK ISLAND   CLEAR     67  56  67 SW8       30.17F
WESTERLY       CLEAR     69  51  52 S6        30.17F

 IN MA

CITY           SKY/WX    TMP DP  RH WIND       PRES   REMARKS
BOSTON         PTCLDY    75  52  44 S13       30.12S
WORCESTER      CLEAR     74  60  61 SW10      30.15F
WESTFIELD      CLEAR     78  60  53 S13       30.10S
PROVINCETOWN   CLEAR     67  56  67 S10       30.16S
NANTUCKET      CLEAR     61  52  72 SW7       30.18F
$$

ANZ330-335-338-340-345-350-353-355-270100-
COASTAL MARINE OBSERVATIONS


STATION/POSITION TIME  SKY/WX   TEMP    WIND        PRES    VSBY  WAVE
                                AIR SEA DIR/SP/G                  HT/PER
                 (UTC)          (F)     (DEG/KT/KT) (MB)    (MI)  (FT/S)
NY HARB ENTRANCE 2250            71 70  200/ 14/ 16 1020.8          3/ 8
20S FIRE ISLAND  2250            69 69  180/ 12/ 14 1021.0          3/ 6
GREAT SOUTH BAY  2300            70 77  230/ 10/ 12   N/A
23 SSW MONTAUK P 2250            68 68  210/  8/ 10 1022.3          2/ 8
15 E BARNEGAT LI 2322               70                N/A           3/ 8
HUDSON CANYON    2250            67 67              1021.9          3/ 7
KINGS POINT      2300               71              1020.5
EXECUTION ROCKS  NOT AVBL
CENTRAL LI SOUND 2300            72     180/ 10/ 12   N/A           1/ 2
EASTERN LI SOUND 2300            65 61   CALM  /  4   N/A
ROBBINS REEF     2318            72                 1019.7
$$


>>>>>>>>>>>>>>>>>>>>>>>>>>>> KEY <<<<<<<<<<<<<<<<<<<<<<<<<<<
>                                                          <
>     SKY/WX - SKY CONDITION/PRESENT WEATHER               <
>     TMP    - TEMPERATURE IN FAHRENHEIT                   <
>     DP     - DEWPOINT IN FAHRENHEIT                      <
>     RH     - RELATIVE HUMIDITY IN PERCENT                <
>     WIND   - DIRECTION AND SPEED IN MPH                  <
>     PRES   - MEAN SEA LEVEL PRESSURE IN INCHES OF HG     <
>     WCI    - WIND CHILL INDEX                            <
>     VSB    - VISIBILITY IN MILES                         <
>     HX     - HEAT INDEX                                  <
>     TC     - TEMPERATURE IN CELSIUS                      <
>     VRB    - VARIABLE WIND DIRECTION                     <
>                                                          <
>>>>>>>>>>>>>>>>>>>>>>>>>>>> KEY <<<<<<<<<<<<<<<<<<<<<<<<<<<






USA.gov is the U.S. government's official web portal to all federal, state and local government web resources and services.